| time (UTC) | temp F | wind direction | speed knots | gust knots | rain 1hr in | rain 24hr in | rain mn in | humidity % | barometer mb |
| 20260504050439 | 70 | 51 | 0.0 | 0.0 | 0.00 | 0.00 | 0.00 | 46 | 1009.2 |
| 20260504045936 | 70 | 282 | 0.0 | 0.0 | 0.00 | 0.00 | 0.00 | 46 | 1009.0 |
| 20260504045432 | 70 | 327 | 0.0 | 0.0 | 0.00 | 0.00 | 0.00 | 44 | 1009.3 |
| 20260504044928 | 70 | 342 | 0.0 | 0.0 | 0.00 | 0.00 | 0.00 | 44 | 1009.0 |
| 20260504044426 | 70 | 336 | 0.0 | 0.0 | 0.00 | 0.00 | 0.00 | 43 | 1009.3 |
| 20260504043923 | 70 | 333 | 0.0 | 0.0 | 0.00 | 0.00 | 0.00 | 44 | 1008.9 |
| 20260504043420 | 69 | 327 | 0.0 | 0.0 | 0.00 | 0.00 | 0.00 | 43 | 1009.1 |
| 20260504042917 | 69 | 322 | 0.0 | 0.0 | 0.00 | 0.00 | 0.00 | 43 | 1009.2 |
| 20260504042414 | 69 | 328 | 0.0 | 0.0 | 0.00 | 0.00 | 0.00 | 43 | 1009.0 |
| 20260504041910 | 70 | 333 | 0.0 | 0.0 | 0.00 | 0.00 | 0.00 | 42 | 1009.1 |
| 20260504041406 | 70 | 335 | 0.0 | 0.0 | 0.00 | 0.00 | 0.00 | 41 | 1009.2 |
| 20260504040903 | 71 | 4 | 0.0 | 0.0 | 0.00 | 0.00 | 0.00 | 40 | 1008.8 |
| 20260504040400 | 71 | 0 | 0.0 | 0.9 | 0.00 | 0.00 | 0.00 | 40 | 1008.9 |
| 20260504035856 | 71 | 342 | 0.9 | 0.9 | 0.00 | 0.00 | 0.00 | 40 | 1008.8 |
| 20260504035354 | 71 | 349 | 1.7 | 1.7 | 0.00 | 0.00 | 0.00 | 39 | 1009.0 |
| 20260504034850 | 72 | 319 | 0.9 | 1.7 | 0.00 | 0.00 | 0.00 | 39 | 1008.7 |
| 20260504034348 | 72 | 318 | 0.9 | 0.9 | 0.00 | 0.00 | 0.00 | 39 | 1008.9 |
| 20260504033844 | 72 | 324 | 0.9 | 0.9 | 0.00 | 0.00 | 0.00 | 39 | 1008.9 |
| 20260504033343 | 72 | 339 | 1.7 | 1.7 | 0.00 | 0.00 | 0.00 | 38 | 1008.9 |
| 20260504032839 | 72 | 330 | 2.6 | 2.6 | 0.00 | 0.00 | 0.00 | 38 | 1009.0 |
| 20260504032336 | 72 | 316 | 1.7 | 1.7 | 0.00 | 0.00 | 0.00 | 38 | 1008.8 |
| 20260504031833 | 72 | 306 | 2.6 | 4.3 | 0.00 | 0.00 | 0.00 | 39 | 1008.8 |
| 20260504031330 | 73 | 336 | 1.7 | 1.7 | 0.00 | 0.00 | 0.00 | 39 | 1008.8 |
| 20260504030826 | 73 | 330 | 1.7 | 1.7 | 0.00 | 0.00 | 0.00 | 40 | 1008.7 |
| 20260504030324 | 73 | 304 | 0.9 | 1.7 | 0.00 | 0.00 | 0.00 | 41 | 1009.0 |
| 20260504025820 | 73 | 328 | 1.7 | 1.7 | 0.00 | 0.00 | 0.00 | 41 | 1009.0 |
| 20260504025317 | 73 | 331 | 3.5 | 4.3 | 0.00 | 0.00 | 0.00 | 42 | 1008.8 |
| 20260504024814 | 73 | 326 | 0.9 | 0.9 | 0.00 | 0.00 | 0.00 | 44 | 1008.8 |
| 20260504024310 | 73 | 309 | 2.6 | 2.6 | 0.00 | 0.00 | 0.00 | 45 | 1008.9 |
| 20260504023807 | 74 | 312 | 1.7 | 2.6 | 0.00 | 0.00 | 0.00 | 44 | 1009.0 |
| 20260504023303 | 75 | 342 | 2.6 | 4.3 | 0.00 | 0.00 | 0.00 | 45 | 1008.9 |
| 20260504022759 | 75 | 323 | 0.9 | 1.7 | 0.00 | 0.00 | 0.00 | 44 | 1009.0 |
| 20260504022256 | 75 | 310 | 0.9 | 0.9 | 0.00 | 0.00 | 0.00 | 45 | 1009.1 |
| 20260504021753 | 75 | 332 | 2.6 | 4.3 | 0.00 | 0.00 | 0.00 | 44 | 1009.0 |
| 20260504021250 | 75 | 331 | 4.3 | 5.2 | 0.00 | 0.00 | 0.00 | 44 | 1008.9 |
| 20260504020747 | 75 | 330 | 2.6 | 4.3 | 0.00 | 0.00 | 0.00 | 45 | 1009.2 |
| 20260504020243 | 75 | 319 | 0.9 | 2.6 | 0.00 | 0.00 | 0.00 | 44 | 1009.2 |
| 20260504015739 | 75 | 344 | 1.7 | 2.6 | 0.00 | 0.00 | 0.00 | 45 | 1009.1 |
| 20260504015236 | 76 | 331 | 5.2 | 7.0 | 0.00 | 0.00 | 0.00 | 44 | 1009.2 |
| 20260504014732 | 75 | 298 | 3.5 | 5.2 | 0.00 | 0.00 | 0.00 | 44 | 1009.3 |
| 20260504014229 | 76 | 311 | 5.2 | 6.1 | 0.00 | 0.00 | 0.00 | 43 | 1009.2 |
| 20260504013726 | 76 | 327 | 1.7 | 2.6 | 0.00 | 0.00 | 0.00 | 43 | 1009.2 |
| 20260504013224 | 76 | 322 | 2.6 | 2.6 | 0.00 | 0.00 | 0.00 | 42 | 1009.3 |
| 20260504012720 | 75 | 326 | 5.2 | 7.0 | 0.00 | 0.00 | 0.00 | 43 | 1009.3 |
| 20260504012218 | 75 | 308 | 6.1 | 7.0 | 0.00 | 0.00 | 0.00 | 42 | 1009.4 |
| 20260504011715 | 75 | 323 | 5.2 | 6.1 | 0.00 | 0.00 | 0.00 | 41 | 1009.6 |
| 20260504011212 | 76 | 322 | 4.3 | 6.1 | 0.00 | 0.00 | 0.00 | 40 | 1009.4 |
| 20260504010708 | 76 | 335 | 5.2 | 7.8 | 0.00 | 0.00 | 0.00 | 39 | 1009.4 |
| 20260504010203 | 76 | 12 | 7.8 | 11.3 | 0.00 | 0.00 | 0.00 | 39 | 1009.8 |
| 20260504005700 | 75 | 328 | 5.2 | 7.8 | 0.00 | 0.00 | 0.00 | 40 | 1009.7 |
| 20260504005157 | 76 | 3 | 6.1 | 8.7 | 0.00 | 0.00 | 0.00 | 41 | 1009.7 |
| 20260504004655 | 76 | 10 | 3.5 | 5.2 | 0.00 | 0.00 | 0.00 | 42 | 1009.5 |
| 20260504004152 | 76 | 349 | 4.3 | 5.2 | 0.00 | 0.00 | 0.00 | 41 | 1009.7 |
| 20260504003648 | 76 | 330 | 5.2 | 6.1 | 0.00 | 0.00 | 0.00 | 43 | 1009.7 |
| 20260504003145 | 76 | 354 | 6.1 | 8.7 | 0.00 | 0.00 | 0.00 | 42 | 1009.6 |
| 20260504002642 | 76 | 353 | 3.5 | 4.3 | 0.00 | 0.00 | 0.00 | 42 | 1009.8 |
| 20260504002139 | 77 | 300 | 2.6 | 4.3 | 0.00 | 0.00 | 0.00 | 42 | 1009.7 |
| 20260504001637 | 77 | 2 | 5.2 | 7.8 | 0.00 | 0.00 | 0.00 | 42 | 1009.6 |
| 20260504001133 | 77 | 310 | 3.5 | 4.3 | 0.00 | 0.00 | 0.00 | 42 | 1009.6 |
| 20260504000630 | 79 | 326 | 4.3 | 5.2 | 0.00 | 0.00 | 0.00 | 42 | 1009.6 |
| 20260504000127 | 78 | 323 | 0.9 | 0.9 | 0.00 | 0.00 | 0.00 | 42 | 1009.9 |
| 20260503235626 | 78 | 294 | 2.6 | 5.2 | 0.00 | 0.00 | 0.00 | 44 | 1009.8 |
| 20260503235122 | 77 | 318 | 1.7 | 2.6 | 0.00 | 0.00 | 0.00 | 44 | 1009.8 |
| 20260503234620 | 78 | 311 | 3.5 | 6.1 | 0.00 | 0.00 | 0.00 | 44 | 1010.1 |
| 20260503234118 | 78 | 313 | 0.9 | 0.9 | 0.00 | 0.00 | 0.00 | 44 | 1010.0 |
| 20260503233615 | 77 | 341 | 2.6 | 2.6 | 0.00 | 0.00 | 0.00 | 44 | 1010.0 |
| 20260503233110 | 77 | 309 | 3.5 | 4.3 | 0.00 | 0.00 | 0.00 | 44 | 1010.1 |
| 20260503232607 | 77 | 342 | 3.5 | 7.0 | 0.00 | 0.00 | 0.00 | 45 | 1010.1 |
| 20260503232105 | 77 | 297 | 5.2 | 7.0 | 0.00 | 0.00 | 0.00 | 44 | 1010.3 |
| 20260503231603 | 79 | 318 | 3.5 | 4.3 | 0.00 | 0.00 | 0.00 | 43 | 1010.4 |
| 20260503231059 | 78 | 317 | 1.7 | 1.7 | 0.00 | 0.00 | 0.00 | 44 | 1010.5 |
| 20260503230555 | 78 | 19 | 1.7 | 1.7 | 0.00 | 0.00 | 0.00 | 44 | 1010.6 |
| 20260503230053 | 78 | 326 | 1.7 | 1.7 | 0.00 | 0.00 | 0.00 | 43 | 1010.5 |
| 20260503225550 | 77 | 348 | 6.1 | 7.0 | 0.00 | 0.00 | 0.00 | 44 | 1010.5 |
| 20260503225045 | 77 | 332 | 6.1 | 7.0 | 0.00 | 0.00 | 0.00 | 44 | 1010.7 |
| 20260503224543 | 80 | 261 | 2.6 | 4.3 | 0.00 | 0.00 | 0.00 | 42 | 1010.7 |
| 20260503224040 | 77 | 327 | 3.5 | 5.2 | 0.00 | 0.00 | 0.00 | 45 | 1010.9 |
| 20260503223539 | 77 | 313 | 3.5 | 5.2 | 0.00 | 0.00 | 0.00 | 44 | 1011.1 |
| 20260503223033 | 76 | 294 | 1.7 | 1.7 | 0.00 | 0.00 | 0.00 | 45 | 1011.1 |
| 20260503222532 | 76 | 338 | 7.8 | 9.6 | 0.00 | 0.00 | 0.00 | 46 | 1011.2 |
| 20260503222030 | 77 | 298 | 4.3 | 7.0 | 0.00 | 0.00 | 0.00 | 45 | 1011.0 |
| 20260503221528 | 76 | 348 | 6.1 | 7.8 | 0.00 | 0.00 | 0.00 | 45 | 1011.4 |
| 20260503221025 | 76 | 30 | 4.3 | 6.1 | 0.00 | 0.00 | 0.00 | 45 | 1011.4 |
| 20260503220521 | 76 | 326 | 6.1 | 8.7 | 0.00 | 0.00 | 0.00 | 45 | 1011.2 |
| 20260503220018 | 76 | 326 | 2.6 | 2.6 | 0.00 | 0.00 | 0.00 | 45 | 1011.5 |
| 20260503215515 | 75 | 321 | 1.7 | 2.6 | 0.00 | 0.00 | 0.00 | 48 | 1011.4 |
| 20260503215012 | 76 | 332 | 3.5 | 5.2 | 0.00 | 0.00 | 0.00 | 49 | 1011.6 |
| 20260503214510 | 76 | 339 | 2.6 | 5.2 | 0.00 | 0.00 | 0.00 | 49 | 1011.3 |
| 20260503214007 | 76 | 329 | 2.6 | 2.6 | 0.00 | 0.00 | 0.00 | 49 | 1011.5 |
| 20260503213505 | 76 | 289 | 3.5 | 5.2 | 0.00 | 0.00 | 0.00 | 49 | 1011.5 |
| 20260503213001 | 76 | 335 | 1.7 | 1.7 | 0.00 | 0.00 | 0.00 | 48 | 1011.4 |
| 20260503212459 | 76 | 309 | 0.9 | 1.7 | 0.00 | 0.00 | 0.00 | 49 | 1011.6 |
| 20260503211956 | 78 | 357 | 6.1 | 7.8 | 0.00 | 0.00 | 0.00 | 45 | 1011.5 |
| 20260503211453 | 77 | 329 | 5.2 | 7.0 | 0.00 | 0.00 | 0.00 | 42 | 1011.5 |
| 20260503210948 | 77 | 251 | 4.3 | 6.1 | 0.00 | 0.00 | 0.00 | 44 | 1011.6 |
| 20260503210445 | 77 | 348 | 1.7 | 2.6 | 0.00 | 0.00 | 0.00 | 43 | 1011.7 |
| 20260503205940 | 76 | 318 | 3.5 | 5.2 | 0.00 | 0.00 | 0.00 | 43 | 1011.8 |
| 20260503205437 | 77 | 292 | 2.6 | 4.3 | 0.00 | 0.00 | 0.00 | 41 | 1011.8 |
| 20260503204933 | 75 | 318 | 4.3 | 6.1 | 0.00 | 0.00 | 0.00 | 42 | 1011.9 |
| 20260503204431 | 76 | 299 | 7.8 | 9.6 | 0.00 | 0.00 | 0.00 | 41 | 1012.1 |
| 20260503203928 | 75 | 344 | 4.3 | 7.8 | 0.00 | 0.00 | 0.00 | 42 | 1012.0 |
| 20260503203425 | 77 | 319 | 0.9 | 0.9 | 0.00 | 0.00 | 0.00 | 41 | 1012.0 |
| 20260503202922 | 76 | 294 | 2.6 | 4.3 | 0.00 | 0.00 | 0.00 | 42 | 1012.2 |
| 20260503202420 | 75 | 32 | 7.8 | 8.7 | 0.00 | 0.00 | 0.00 | 44 | 1012.3 |
| 20260503201918 | 74 | 22 | 5.2 | 7.0 | 0.00 | 0.00 | 0.00 | 44 | 1012.2 |
| 20260503201415 | 75 | 321 | 6.1 | 8.7 | 0.00 | 0.00 | 0.00 | 44 | 1012.4 |
| 20260503200913 | 75 | 340 | 4.3 | 6.1 | 0.00 | 0.00 | 0.00 | 44 | 1012.6 |
| 20260503200409 | 75 | 285 | 1.7 | 1.7 | 0.00 | 0.00 | 0.00 | 44 | 1012.3 |
| 20260503195905 | 75 | 327 | 5.2 | 6.1 | 0.00 | 0.00 | 0.00 | 46 | 1012.6 |
| 20260503195403 | 74 | 5 | 8.7 | 12.2 | 0.00 | 0.00 | 0.00 | 48 | 1012.6 |
| 20260503194859 | 74 | 304 | 4.3 | 6.1 | 0.00 | 0.00 | 0.00 | 48 | 1012.6 |
| 20260503194356 | 75 | 332 | 1.7 | 2.6 | 0.00 | 0.00 | 0.00 | 49 | 1012.7 |
| 20260503193852 | 75 | 313 | 6.1 | 8.7 | 0.00 | 0.00 | 0.00 | 47 | 1012.6 |
| 20260503193347 | 75 | 312 | 0.9 | 0.9 | 0.00 | 0.00 | 0.00 | 47 | 1012.6 |
| 20260503192843 | 75 | 18 | 4.3 | 6.1 | 0.00 | 0.00 | 0.00 | 47 | 1012.7 |
| 20260503192339 | 74 | 7 | 5.2 | 7.0 | 0.00 | 0.00 | 0.00 | 49 | 1012.9 |
| 20260503191836 | 74 | 3 | 2.6 | 2.6 | 0.00 | 0.00 | 0.00 | 51 | 1012.9 |
| 20260503191333 | 75 | 328 | 3.5 | 4.3 | 0.00 | 0.00 | 0.00 | 51 | 1012.9 |
| 20260503190829 | 74 | 3 | 2.6 | 5.2 | 0.00 | 0.00 | 0.00 | 51 | 1013.2 |
| 20260503190327 | 75 | 348 | 0.9 | 0.9 | 0.00 | 0.00 | 0.00 | 52 | 1013.2 |
| 20260503185824 | 75 | 287 | 2.6 | 5.2 | 0.00 | 0.00 | 0.00 | 50 | 1013.2 |
| 20260503185319 | 76 | 318 | 4.3 | 6.1 | 0.00 | 0.00 | 0.00 | 51 | 1013.2 |
| 20260503184814 | 73 | 353 | 1.7 | 1.7 | 0.00 | 0.00 | 0.00 | 52 | 1013.4 |
| 20260503184310 | 72 | 307 | 2.6 | 4.3 | 0.00 | 0.00 | 0.00 | 55 | 1013.3 |
| 20260503183806 | 73 | 350 | 7.0 | 7.8 | 0.00 | 0.00 | 0.00 | 54 | 1013.4 |
| 20260503183304 | 72 | 314 | 0.9 | 1.7 | 0.00 | 0.00 | 0.00 | 55 | 1013.3 |
| 20260503182801 | 72 | 336 | 6.1 | 7.8 | 0.00 | 0.00 | 0.00 | 56 | 1013.3 |
| 20260503182300 | 72 | 301 | 7.8 | 8.7 | 0.00 | 0.00 | 0.00 | 55 | 1013.3 |
| 20260503181756 | 72 | 317 | 5.2 | 7.8 | 0.00 | 0.00 | 0.00 | 55 | 1013.4 |
| 20260503181253 | 71 | 328 | 2.6 | 7.0 | 0.00 | 0.00 | 0.00 | 57 | 1013.6 |
| 20260503180744 | 72 | 316 | 1.7 | 2.6 | 0.00 | 0.00 | 0.00 | 56 | 1013.4 |
| 20260503180242 | 72 | 336 | 2.6 | 2.6 | 0.00 | 0.00 | 0.00 | 56 | 1013.4 |
| 20260503175738 | 72 | 314 | 1.7 | 1.7 | 0.00 | 0.00 | 0.00 | 55 | 1013.6 |
| 20260503175236 | 71 | 315 | 3.5 | 5.2 | 0.00 | 0.00 | 0.00 | 56 | 1013.5 |
| 20260503174732 | 71 | 316 | 6.1 | 7.0 | 0.00 | 0.00 | 0.00 | 57 | 1013.3 |
| 20260503174230 | 71 | 330 | 4.3 | 6.1 | 0.00 | 0.00 | 0.00 | 58 | 1013.6 |
| 20260503173725 | 70 | 351 | 5.2 | 7.0 | 0.00 | 0.00 | 0.00 | 58 | 1013.6 |
| 20260503173221 | 70 | 282 | 4.3 | 6.1 | 0.00 | 0.00 | 0.00 | 58 | 1013.6 |
| 20260503172718 | 70 | 301 | 3.5 | 5.2 | 0.00 | 0.00 | 0.00 | 59 | 1013.9 |
| 20260503172215 | 70 | 317 | 1.7 | 1.7 | 0.00 | 0.00 | 0.00 | 60 | 1013.9 |
| 20260503171711 | 70 | 271 | 4.3 | 7.0 | 0.00 | 0.00 | 0.00 | 59 | 1013.7 |
| 20260503171209 | 71 | 328 | 1.7 | 2.6 | 0.00 | 0.00 | 0.00 | 57 | 1013.6 |
| 20260503170706 | 69 | 347 | 0.0 | 0.9 | 0.00 | 0.00 | 0.00 | 59 | 1013.6 |
| 20260503170203 | 69 | 314 | 1.7 | 1.7 | 0.00 | 0.00 | 0.00 | 60 | 1013.9 |
| 20260503160124 | 69 | 8 | 2.6 | 2.6 | 0.00 | 0.00 | 0.00 | 59 | 1014.1 |
| 20260503150554 | 65 | 5 | 3.5 | 4.3 | 0.00 | 0.00 | 0.00 | 64 | 1014.3 |
| 20260503130944 | 57 | 36 | 0.9 | 0.9 | 0.00 | 0.00 | 0.00 | 77 | 1013.9 |
| 20260503130442 | 57 | 3 | 0.0 | 0.0 | 0.00 | 0.00 | 0.00 | 77 | 1013.9 |
| 20260503110332 | 59 | 44 | 3.5 | 5.2 | 0.00 | 0.00 | 0.00 | 70 | 1014.0 |
| 20260503100258 | 59 | 326 | 0.9 | 0.9 | 0.00 | 0.00 | 0.00 | 69 | 1014.3 |
| 20260503090218 | 61 | 21 | 1.7 | 1.7 | 0.00 | 0.00 | 0.00 | 60 | 1014.2 |
| 20260503081145 | 62 | 37 | 1.7 | 1.7 | 0.00 | 0.00 | 0.00 | 58 | 1014.3 |
| 20260503080641 | 63 | 59 | 0.9 | 1.7 | 0.00 | 0.00 | 0.00 | 58 | 1014.4 |
| 20260503080138 | 63 | 50 | 0.9 | 0.9 | 0.00 | 0.00 | 0.00 | 58 | 1014.4 |
| 20260503072615 | 63 | 3 | 0.9 | 0.9 | 0.00 | 0.00 | 0.00 | 58 | 1014.2 |
| 20260503072112 | 63 | 19 | 0.9 | 0.9 | 0.00 | 0.00 | 0.00 | 58 | 1014.3 |